Vorticity
2 3 5 4 6 7 6 5 7 8 7 7 6 12 10 21 33 11 1 4 4 7 4 5 7 7 6 5 7 6 3 4 6 6 4 6 6 5 6 5 6 8 7 7 7 6 6 7 8 7 6 6 6 8 7 5 4 4 5 4 5 5 4 4 3 4 4 3 3 5 5 5 5 4 4 4 3 3 3 4 3 4 4 3 2 2 3 2 3 2 2 3 0 6 7 5 6
4 6 8 5 5 8 11 9 6 9 8 6 5 10 10 11 12 3 5 8 6 8 5 5 5 5 5 5 6 5 5 5 6 6 5 6 7 5 7 6 5 6 6 7 7 5 6 8 8 6 6 6 6 7 6 5 4 4 4 4 5 5 3 4 4 4 4 4 4 5 5 6 4 4 4 3 4 3 3 4 4 4 5 6 5 4 2 2 3 4 4 2 4 6 2 6 15
6 8 13 11 8 8 11 10 4 6 7 7 8 8 7 9 7 6 9 7 5 3 4 6 5 5 3 4 5 4 5 5 7 7 5 7 8 6 7 7 6 6 5 6 7 5 6 7 7 5 4 5 6 6 6 6 6 4 4 4 4 5 4 3 4 4 4 4 4 4 4 5 4 4 4 3 3 3 3 3 5 5 7 7 8 8 4 5 4 5 4 4 4 3 5 5 17
11 9 10 13 13 12 10 9 7 5 6 6 7 6 4 7 8 9 9 5 3 0 4 6 4 6 5 6 5 4 5 5 7 6 5 6 7 7 7 8 7 7 6 5 5 5 6 7 7 6 5 5 6 6 5 6 6 5 4 4 5 5 4 4 5 3 4 4 4 4 3 3 4 4 4 4 3 3 3 3 5 5 9 7 6 8 7 8 6 7 6 7 6 2 7 -1 15
10 11 7 9 11 11 9 7 10 7 6 10 8 6 6 9 9 9 10 4 2 3 6 4 3 7 7 7 5 5 7 7 6 4 5 5 5 7 7 8 8 7 7 6 5 4 5 7 7 7 7 7 6 6 7 6 6 6 4 4 4 5 5 4 5 4 3 4 4 3 3 3 3 4 5 4 3 4 3 3 4 3 9 8 5 5 8 11 7 9 7 10 12 6 9 6 22
4 9 6 6 8 9 9 3 6 6 4 12 11 6 7 12 12 10 11 6 1 4 5 3 4 7 6 5 5 6 7 7 6 4 5 5 5 7 7 7 7 7 8 7 6 5 5 7 8 8 8 9 7 6 7 7 7 7 5 4 4 5 5 4 5 5 5 4 3 3 3 3 3 4 4 4 4 3 3 2 1 0 4 9 8 4 4 8 7 9 9 10 10 13 23 21 22
3 5 6 4 6 8 10 5 6 7 6 8 5 1 3 9 14 11 8 6 3 4 5 4 5 5 6 5 5 7 8 8 6 4 5 5 4 5 7 7 7 7 7 8 7 5 5 6 8 8 8 9 8 7 7 7 7 7 7 5 5 4 5 5 4 4 5 4 3 3 2 3 3 4 4 4 3 2 3 3 3 2 2 7 15 14 7 7 10 8 9 12 9 19 25 12 7
4 3 7 6 6 9 9 8 7 8 8 8 4 3 4 4 10 10 5 3 4 5 4 5 6 5 5 6 6 8 9 10 8 6 5 5 5 4 5 6 7 7 6 7 8 6 4 5 7 8 8 8 9 7 6 7 6 6 7 6 5 4 4 5 5 4 4 5 4 3 3 3 3 5 6 6 7 9 9 8 8 7 2 0 7 15 12 9 14 7 5 12 13 21 14 1 4
5 4 7 7 8 11 8 8 8 8 8 9 9 8 7 4 4 6 5 4 4 3 4 5 7 5 4 5 6 7 8 10 10 8 7 5 5 4 3 5 6 6 6 6 7 7 5 5 6 7 7 7 9 8 6 6 8 6 5 7 6 4 4 4 5 5 4 4 5 5 4 4 3 5 7 7 9 12 12 12 10 10 7 1 2 10 12 11 15 8 5 10 12 20 10 0 5
4 7 9 9 10 11 8 9 10 10 8 8 10 10 11 10 9 8 4 7 8 3 3 6 6 5 3 3 5 5 6 9 10 9 8 7 6 4 4 4 5 6 6 6 7 7 6 5 5 7 8 7 7 9 8 6 7 8 5 6 7 5 4 4 4 5 5 4 4 5 6 7 4 3 5 6 7 12 13 11 11 13 15 12 8 16 25 23 15 7 7 9 9 20 13 -0 3
4 9 11 11 11 10 8 9 10 12 10 8 8 9 11 12 14 12 6 12 14 5 5 6 4 6 4 3 5 5 6 6 8 10 8 9 8 5 5 5 5 4 4 5 7 7 6 6 6 6 7 6 6 7 9 8 6 7 6 6 7 6 5 5 3 4 5 5 4 3 6 7 7 4 4 5 6 9 10 10 13 12 13 11 7 17 30 22 7 4 9 8 6 13 11 2 3
7 14 15 14 11 6 6 6 7 11 12 11 9 8 9 10 11 10 9 13 15 7 5 7 3 5 4 3 5 4 5 5 6 9 9 10 8 6 6 5 5 4 4 5 6 7 6 6 7 6 6 6 7 6 6 8 7 6 6 6 6 6 5 6 5 4 4 5 5 3 4 6 7 6 5 8 6 2 -1 -0 8 7 6 7 3 10 19 12 1 3 9 7 8 8 6 5 5
11 15 15 13 11 6 4 6 6 8 10 11 10 9 9 11 10 11 11 13 24 17 4 6 4 4 4 3 6 3 3 5 6 7 10 11 8 7 6 5 6 5 5 5 5 6 7 6 7 7 6 5 5 6 5 5 6 6 6 5 5 6 5 5 6 6 7 5 4 3 3 5 7 6 3 3 3 5 3 -2 4 5 1 7 5 2 6 9 6 7 11 10 11 7 3 5 5
11 8 8 6 7 7 6 8 8 7 7 7 8 9 9 10 11 13 12 11 24 19 3 7 6 3 4 4 6 4 3 3 5 6 8 10 7 6 6 5 5 6 6 6 6 6 7 7 7 6 6 5 3 4 4 5 6 5 6 6 5 6 5 4 4 4 6 8 6 4 2 6 8 5 3 4 2 2 4 -5 -4 -4 -15 -2 9 4 3 9 14 13 11 10 9 7 5 7 5
12 7 6 4 6 7 6 9 10 9 8 7 7 9 9 8 9 12 13 11 15 13 6 7 4 3 4 3 4 5 4 1 2 5 7 8 8 6 5 4 5 6 6 5 6 6 7 7 8 7 5 6 6 6 6 5 6 5 4 5 5 6 7 6 6 2 4 5 6 7 5 8 7 4 1 1 -0 2 11 -5 -11 5 -3 -2 9 11 10 7 13 12 7 8 8 8 8 8 6
11 9 8 5 7 7 6 7 8 10 11 10 9 10 11 8 6 8 10 11 13 15 13 10 6 6 6 3 4 7 6 3 1 3 7 7 7 7 6 5 5 6 6 5 5 5 7 7 8 8 4 5 6 7 8 5 4 5 3 4 5 6 6 6 8 5 6 5 1 4 8 12 6 9 9 -3 -3 3 14 1 -11 12 14 3 8 14 16 8 8 9 7 9 8 7 9 9 7
6 6 8 5 4 6 6 6 5 8 10 10 8 8 9 8 7 6 6 8 10 12 14 14 12 11 12 8 7 8 5 5 5 4 6 7 8 8 6 5 5 5 6 6 5 5 7 8 9 7 6 9 7 5 6 7 7 7 6 5 4 6 5 3 6 5 8 9 4 2 8 13 2 10 17 -0 5 4 -2 6 2 5 9 5 8 10 13 10 8 8 7 8 8 8 9 8 6
5 4 4 4 4 5 7 7 5 6 8 8 8 8 7 8 9 8 8 8 7 6 8 13 14 13 14 11 10 8 3 5 9 8 6 6 8 9 6 5 4 5 6 6 6 6 6 7 9 7 7 8 9 7 5 6 7 6 8 7 4 6 7 3 4 5 5 7 6 5 8 13 6 9 16 -1 4 6 -6 10 12 5 11 9 9 9 8 10 8 6 5 6 8 9 8 7 5
6 5 2 2 3 4 5 8 8 8 8 8 9 10 10 9 10 11 10 10 8 6 4 8 14 14 12 9 8 8 6 6 10 9 5 4 7 8 5 4 5 5 6 5 5 6 6 6 9 9 8 7 7 9 7 6 7 5 6 8 6 6 7 5 5 6 5 4 3 6 6 9 10 10 19 10 1 3 1 10 7 8 21 11 7 10 4 7 7 5 7 6 7 9 8 6 5
4 4 3 2 3 3 3 4 6 9 10 10 10 9 9 8 9 12 10 8 8 9 6 4 9 14 15 14 13 12 9 7 9 9 5 5 6 7 5 4 6 5 5 6 5 5 7 6 8 9 8 8 7 8 8 7 7 5 4 6 7 5 6 7 6 7 6 5 3 5 5 4 8 7 10 11 4 5 8 10 7 12 23 13 8 10 3 6 6 2 6 6 7 8 7 6 7
2 2 3 2 3 4 3 2 2 6 8 8 10 8 6 6 7 9 9 8 7 8 8 5 4 8 11 13 15 16 15 11 11 9 6 5 6 7 6 5 6 6 5 6 6 4 6 6 7 10 8 8 8 7 8 7 7 6 6 7 8 6 6 7 7 7 6 6 6 5 7 4 5 7 6 8 8 10 7 7 13 13 14 12 9 12 9 8 6 3 6 6 6 7 6 6 7
3 4 5 2 3 3 3 4 1 1 4 6 9 8 7 8 9 5 5 8 7 7 10 9 6 5 7 10 11 11 14 16 14 11 8 8 8 8 8 7 6 6 6 6 7 5 5 5 6 9 9 9 9 9 7 6 7 7 7 7 7 8 7 7 5 6 6 6 7 6 9 7 5 8 9 10 10 10 5 6 17 10 4 11 9 9 13 10 7 6 7 6 6 6 6 6 8
6 9 12 8 5 2 1 4 2 1 1 4 8 9 9 11 13 8 4 7 8 8 11 14 11 7 8 11 9 7 10 13 14 16 13 8 6 5 5 8 6 4 7 8 7 6 5 6 6 7 8 9 9 9 9 7 7 7 8 7 7 7 6 7 5 4 6 6 7 8 9 8 7 7 8 10 9 7 6 7 15 10 4 10 7 6 10 9 8 7 7 7 6 6 5 6 8
7 8 14 13 8 4 3 2 2 3 3 2 6 10 12 16 17 10 7 9 9 9 12 15 15 12 9 10 9 6 8 9 12 14 10 5 4 8 5 2 4 5 6 7 6 6 5 5 5 6 6 6 7 7 8 8 8 8 8 8 7 7 5 6 6 5 6 6 6 7 8 8 7 8 8 9 7 5 6 9 13 14 11 2 -3 5 8 6 8 7 7 8 7 7 5 6 8
3 5 10 11 9 8 7 5 1 0 4 4 5 9 12 16 15 5 4 10 10 9 12 14 14 13 10 11 11 8 7 7 10 10 6 5 10 21 18 5 3 4 5 6 5 4 4 5 5 5 4 2 3 3 5 6 7 8 8 9 8 7 6 6 6 6 6 5 6 6 7 9 8 9 8 7 6 5 7 10 9 13 18 5 -4 4 8 5 8 7 7 9 8 7 5 5 8
2 7 8 7 9 9 5 4 2 -0 1 3 6 9 10 12 9 1 0 9 11 7 10 13 12 12 9 10 11 10 9 5 7 9 6 6 8 16 22 15 6 4 5 7 7 4 4 5 5 5 4 2 2 1 2 3 4 6 6 8 9 9 8 8 8 7 7 7 9 9 9 13 11 8 9 8 8 7 6 9 8 7 16 17 8 6 7 5 7 8 8 9 8 8 5 4 7
5 7 8 8 11 12 7 3 4 5 0 -1 6 9 11 12 10 5 4 9 13 9 8 11 11 10 10 10 10 11 12 9 6 8 8 8 8 6 8 10 6 5 6 9 12 7 4 6 5 5 5 3 2 2 2 2 2 3 5 6 8 10 10 10 10 7 8 9 7 6 9 17 16 12 12 9 7 7 7 9 8 5 8 13 13 9 7 6 8 9 7 7 8 9 5 3 8
4 3 3 6 8 11 12 7 2 5 2 -2 3 8 11 16 15 12 12 11 12 10 8 10 9 8 9 10 10 10 11 13 10 9 9 9 11 9 6 5 4 6 6 6 10 8 6 10 9 6 5 5 4 2 2 2 3 3 4 5 6 10 10 10 9 6 7 6 4 4 6 14 15 16 17 10 8 7 8 9 6 5 6 8 11 10 8 8 9 9 7 7 7 9 5 4 10
0 -1 -2 1 6 8 9 10 3 2 4 0 -2 3 9 14 17 15 14 12 10 9 8 9 9 8 9 10 10 9 8 12 12 10 9 9 10 11 11 9 6 6 7 5 5 5 7 11 13 11 8 7 5 4 3 3 4 4 5 5 4 8 11 10 8 6 6 7 9 6 5 10 10 14 17 9 9 9 8 9 6 5 6 6 8 8 9 9 8 9 8 7 7 8 5 6 10
-2 -1 -1 0 8 11 6 7 6 1 3 4 -1 1 6 10 12 11 9 8 7 7 7 7 8 9 10 10 11 10 7 9 12 11 10 8 7 9 10 11 10 8 6 3 3 3 2 3 7 12 12 8 5 4 4 3 4 5 5 6 4 6 9 10 9 7 7 8 11 8 7 9 7 9 13 8 9 10 9 8 5 5 6 7 7 7 8 8 7 9 8 7 7 7 5 8 10
2 3 1 0 7 13 8 2 5 3 0 4 4 1 5 9 9 7 5 5 6 6 8 7 6 8 9 10 11 12 11 9 10 10 11 11 8 7 6 8 10 10 9 6 6 6 4 2 2 6 10 11 8 5 4 3 4 5 6 7 5 5 7 10 10 9 9 8 7 9 9 6 9 14 13 10 9 9 11 8 5 6 6 6 6 7 8 8 8 8 8 8 7 6 6 8 10
6 3 -2 1 4 10 12 2 2 5 1 1 5 2 3 7 7 6 6 6 6 5 7 10 10 8 7 10 12 13 14 13 11 10 9 12 12 10 8 6 6 7 9 9 8 7 6 6 4 3 5 9 13 9 5 4 4 4 4 6 6 4 6 9 11 10 9 8 7 9 10 5 11 17 11 9 10 10 11 7 5 6 6 6 6 7 8 9 9 8 8 8 7 6 5 8 8
5 1 -1 3 2 8 13 3 1 5 3 3 5 3 2 5 4 5 7 6 6 4 4 7 11 12 6 9 14 11 12 13 13 14 11 10 11 11 10 9 8 7 8 9 10 10 9 8 7 7 4 7 14 14 8 5 4 3 2 3 6 5 5 6 10 11 9 8 7 8 11 8 9 12 9 9 11 11 10 7 6 6 5 6 5 7 9 9 10 10 8 7 6 6 6 8 5
6 1 0 -2 -2 12 14 2 1 3 3 6 8 3 -1 2 3 3 5 4 4 5 3 2 8 16 11 8 12 8 6 9 11 15 16 11 10 11 10 9 10 10 9 9 11 11 12 11 10 11 9 5 9 15 15 9 4 2 2 2 4 5 6 5 7 11 11 7 6 6 10 11 8 9 9 9 11 10 9 7 6 6 6 6 6 7 8 9 11 10 8 5 5 5 6 8 7
5 -0 -3 -8 -1 20 17 0 1 4 2 4 7 5 -1 -0 2 2 5 4 3 5 3 1 6 16 18 10 9 8 5 7 9 12 17 14 10 9 10 11 10 10 9 9 10 10 11 11 10 11 11 7 5 12 17 13 6 2 2 2 3 5 5 4 6 8 8 6 7 6 9 11 8 8 9 9 12 10 7 7 6 5 6 5 6 7 8 9 10 11 7 4 4 5 6 8 11
2 -1 -5 -7 8 25 17 1 3 5 1 1 6 6 -1 -1 2 2 4 3 5 6 -0 3 8 10 17 12 5 7 5 7 9 8 12 14 11 9 8 10 11 10 10 9 9 9 10 9 9 9 9 11 9 9 12 12 10 8 5 2 1 5 5 3 4 5 7 9 9 7 8 10 8 8 10 10 12 9 6 8 6 5 6 5 6 8 9 9 10 10 7 4 5 5 6 8 11
2 1 -5 0 18 25 14 2 4 7 2 -1 4 9 2 -1 0 -1 2 1 4 9 -2 2 12 7 12 10 2 7 7 8 10 6 8 12 13 12 10 9 8 9 8 8 8 8 9 10 10 9 7 9 10 9 10 9 10 11 9 6 2 4 5 4 3 4 9 12 11 8 7 10 10 8 9 10 11 9 7 7 6 5 6 5 7 8 8 8 10 9 5 5 5 6 7 7 7
4 4 -1 9 22 20 9 -1 2 6 3 -1 1 8 6 0 1 0 3 0 2 10 -1 2 13 7 10 8 2 11 9 7 11 7 7 9 11 12 11 9 6 7 7 7 8 7 8 9 10 11 9 8 7 8 10 9 10 10 10 9 6 4 6 5 4 5 10 12 12 10 8 10 12 9 8 10 10 8 7 7 6 6 6 6 6 7 8 8 9 8 5 4 5 5 6 6 7
7 8 6 18 23 13 4 2 4 3 2 2 -1 4 6 4 5 5 5 1 2 6 0 5 12 6 10 7 2 13 11 5 10 9 9 9 10 11 11 11 8 7 7 6 7 7 7 7 7 9 10 11 9 8 9 9 10 10 9 10 9 6 7 7 6 6 10 12 12 10 8 10 12 10 9 10 10 8 7 7 7 7 6 5 5 6 8 9 8 8 6 4 3 3 4 5 7
12 14 14 21 18 8 4 5 8 4 1 4 5 10 10 5 6 7 7 4 4 4 2 9 12 6 11 8 3 13 13 3 4 11 13 9 7 8 10 13 13 10 9 7 7 7 7 7 8 8 8 9 10 10 9 9 10 10 9 9 10 8 6 6 6 6 8 11 11 9 8 10 11 10 10 10 10 8 8 8 7 8 6 4 5 7 9 10 9 8 7 4 1 1 3 4 6
18 16 13 14 11 7 4 1 4 7 5 6 11 13 5 -2 -1 5 9 7 8 10 9 13 13 10 13 10 4 10 16 7 1 8 14 11 6 5 9 14 17 17 14 12 10 9 9 9 9 11 10 10 8 8 9 9 10 11 10 9 10 10 6 5 6 6 6 9 11 10 9 10 11 11 11 11 10 9 8 7 6 8 7 4 4 6 8 11 10 8 7 5 3 2 3 4 6
20 12 7 9 9 7 4 0 -3 -2 4 7 9 6 1 1 1 6 13 13 16 16 11 15 19 17 12 8 4 5 14 14 4 5 12 15 10 4 9 13 14 15 13 11 10 10 11 10 11 11 12 13 11 8 6 8 9 9 11 10 8 10 9 6 6 5 6 9 10 10 9 10 12 13 12 11 10 9 8 7 6 8 8 4 4 6 7 9 10 9 8 7 5 3 3 3 6
18 8 4 6 7 7 5 6 -3 -7 3 6 7 6 8 12 12 15 15 13 20 12 5 16 19 14 9 7 7 5 11 14 5 2 7 14 12 7 11 12 8 8 9 9 9 9 10 10 10 10 11 15 17 14 7 5 8 9 9 10 9 8 9 10 8 5 4 7 9 9 9 9 11 13 12 10 9 9 8 7 6 8 8 6 4 5 6 8 9 9 9 9 7 4 3 3 5
13 4 6 7 10 10 0 2 6 8 12 6 4 7 9 13 17 18 6 5 18 6 1 14 9 5 9 9 10 10 11 11 4 1 4 11 12 10 11 9 6 7 6 7 8 7 7 8 8 11 14 15 15 16 13 7 7 10 9 9 11 9 8 9 9 8 4 4 8 10 10 8 9 13 11 9 9 8 9 8 6 7 8 6 5 5 5 7 8 8 8 9 8 6 4 4 5
8 10 15 9 14 17 5 7 15 17 14 4 1 2 2 8 14 10 -3 1 14 6 6 15 6 4 9 4 6 10 12 9 4 3 5 10 13 12 11 8 7 7 4 5 7 6 6 7 9 15 19 21 20 16 17 15 7 9 11 7 10 11 9 7 8 10 7 2 6 10 12 9 9 12 11 9 9 7 9 8 6 7 8 6 6 6 5 6 7 7 7 8 9 8 6 5 4
12 18 17 6 12 21 16 16 16 13 11 4 -0 1 1 4 5 3 3 6 7 7 17 19 9 5 5 3 4 5 7 6 6 9 8 9 14 13 9 8 7 6 4 6 8 6 7 9 13 18 19 28 39 27 17 18 8 5 10 8 8 10 10 8 6 10 9 3 4 10 14 11 8 11 10 8 8 8 9 8 6 6 7 7 5 6 5 5 5 6 7 7 9 11 10 8 6
14 15 10 4 7 12 9 8 9 6 6 7 3 2 3 3 2 3 6 4 1 12 25 20 11 5 3 9 10 5 4 6 12 16 9 5 12 15 9 5 4 4 5 7 8 6 8 11 13 18 18 27 46 37 17 16 10 6 10 8 8 9 11 12 7 9 9 4 4 9 14 12 9 10 10 8 8 9 8 7 6 5 6 8 6 5 5 5 5 5 7 7 7 9 11 10 8
6 4 5 0 -2 4 4 0 6 3 -1 5 5 4 7 3 4 8 5 -1 0 15 22 14 8 4 2 12 17 12 6 7 12 12 6 2 7 12 9 5 3 4 6 6 8 7 7 10 10 15 21 24 34 28 12 11 9 6 9 9 9 8 10 14 11 9 9 5 4 9 13 12 9 9 9 8 7 8 8 8 7 5 5 7 6 4 4 5 5 5 5 6 6 8 10 11 10
1 2 7 10 8 9 6 1 6 9 4 1 -1 4 5 -1 3 6 1 -3 -2 8 13 8 5 4 5 11 16 12 2 4 6 1 3 7 6 6 5 5 6 6 8 7 9 10 6 8 9 11 19 23 23 18 12 13 10 9 12 12 12 11 10 15 16 12 10 6 3 7 13 12 9 8 9 9 7 6 7 7 7 6 4 5 5 5 5 4 5 4 4 5 6 7 8 10 10
4 5 10 20 22 9 3 8 9 5 5 2 1 6 4 3 7 2 -1 0 -2 3 7 5 5 6 9 12 13 11 3 4 6 -1 2 9 11 11 4 2 5 6 8 8 9 12 8 7 8 9 15 20 21 19 16 16 14 15 19 17 13 10 10 18 21 15 10 8 4 4 10 11 9 7 7 9 9 7 6 6 8 7 6 6 5 6 6 5 5 4 4 5 5 7 8 10 11
9 11 12 12 13 3 -5 6 11 4 6 5 3 6 6 9 12 4 3 3 -1 5 6 3 4 6 11 12 8 8 6 5 8 6 4 6 14 17 8 3 6 5 8 9 9 10 8 8 9 9 12 14 17 18 17 16 13 12 14 16 13 6 5 14 20 16 10 9 6 3 6 9 10 8 6 6 9 9 8 8 9 8 7 6 6 6 6 5 5 5 4 4 5 6 7 8 10
10 9 13 4 0 6 -3 -3 11 10 3 1 1 6 9 10 12 10 6 1 -0 7 8 5 5 4 11 13 4 6 13 9 9 12 8 5 9 10 4 4 6 9 12 10 9 7 6 9 10 10 11 11 12 14 15 16 14 11 10 13 12 6 3 9 15 15 12 9 7 5 6 7 9 10 9 6 6 7 8 8 9 9 8 6 5 6 6 5 5 5 5 5 5 6 6 7 8
15 9 12 -1 -7 6 3 -3 6 5 -0 4 8 10 8 7 10 9 3 1 4 8 8 8 7 5 9 11 6 10 19 13 9 13 12 9 6 2 3 4 5 16 19 9 6 6 5 10 12 12 11 10 10 11 13 15 16 17 18 16 15 12 9 10 10 13 13 10 8 7 7 6 7 9 9 8 7 6 7 8 8 8 9 8 6 5 5 5 5 4 4 4 5 5 6 6 7
17 14 5 -4 -4 4 5 -1 -2 -2 2 9 8 8 9 7 6 2 -3 3 8 7 8 7 5 6 7 8 8 10 14 10 7 10 12 14 13 8 9 4 5 25 25 6 2 5 5 10 13 13 12 10 9 9 12 15 17 23 27 26 21 15 13 11 8 9 11 10 9 9 9 7 6 6 7 8 8 7 7 6 7 8 8 9 8 7 6 5 5 5 5 4 4 5 5 6 6
14 18 5 -1 4 3 4 4 -2 -3 4 4 1 5 7 3 -2 -4 -2 6 8 5 4 1 -1 5 7 8 10 9 7 5 4 5 5 11 16 16 12 2 7 31 27 2 -0 5 5 11 13 13 15 12 9 9 11 13 15 24 31 32 24 14 10 11 10 9 9 9 9 9 9 8 7 7 7 8 9 10 10 9 7 7 7 7 8 8 7 7 6 6 6 5 5 5 5 5 5
11 19 11 4 3 0 3 7 4 4 6 2 1 3 4 0 -4 -3 3 8 7 3 1 -1 1 9 14 12 12 13 13 8 5 7 2 3 11 15 11 2 9 31 22 -1 -0 5 4 10 13 13 15 14 11 10 12 12 13 20 27 27 20 12 9 10 11 11 9 8 10 10 9 9 8 7 7 8 9 9 10 11 11 9 9 8 7 8 8 7 8 7 7 7 6 6 5 4 5
6 11 13 8 3 -0 -1 2 4 5 2 0 1 3 6 6 2 2 5 5 2 -1 -2 -1 4 13 15 10 8 12 16 13 9 8 2 -0 7 12 11 5 10 23 17 2 2 4 3 8 11 11 12 13 12 10 11 13 12 15 22 23 16 11 11 10 10 12 12 11 11 10 9 10 12 10 8 8 8 6 5 6 8 9 10 9 8 8 8 8 8 8 6 7 7 7 6 5 5
1 3 10 10 6 3 -1 1 6 6 2 1 2 3 4 3 2 3 3 0 -1 -3 -3 -1 5 10 8 4 5 8 13 15 12 7 2 1 7 10 9 6 8 15 14 7 5 4 3 6 8 10 12 12 13 11 11 14 14 13 17 22 21 15 13 12 10 11 13 13 10 8 7 8 10 10 9 9 7 7 7 5 5 7 8 10 8 7 8 9 9 9 8 7 7 7 7 6 6
Height
5907 5907 5906 5906 5906 5905 5904 5903 5903 5902 5903 5903 5903 5903 5904 5904 5904 5905 5906 5907 5907 5908 5908 5908 5908 5908 5908 5909 5909 5909 5908 5908 5909 5908 5907 5909 5909 5907 5907 5907 5907 5907 5908 5908 5908 5908 5908 5909 5911 5912 5911 5910 5910 5911 5913 5913 5913 5913 5913 5913 5913 5914 5915 5915 5915 5916 5917 5918 5918 5919 5919 5919 5919 5919 5919 5919 5919 5919 5919 5919 5918 5918 5918 5918 5918 5918 5917 5917 5916 5916 5915 5915 5915 5914 5914 5914 5914
5907 5907 5907 5907 5907 5906 5905 5904 5903 5903 5904 5904 5904 5904 5904 5905 5905 5906 5906 5907 5908 5908 5908 5908 5909 5908 5908 5908 5909 5909 5909 5908 5909 5908 5908 5909 5909 5909 5908 5908 5908 5908 5908 5908 5908 5907 5907 5907 5908 5908 5908 5908 5909 5911 5912 5913 5913 5913 5913 5913 5913 5914 5915 5915 5915 5916 5917 5918 5918 5918 5918 5918 5918 5919 5919 5919 5918 5918 5918 5918 5918 5918 5918 5918 5917 5917 5916 5916 5915 5915 5914 5914 5914 5913 5913 5913 5913
5908 5908 5907 5907 5907 5906 5905 5905 5905 5905 5905 5905 5905 5905 5905 5905 5905 5906 5906 5907 5908 5909 5909 5909 5909 5909 5909 5909 5910 5910 5910 5909 5909 5909 5908 5909 5910 5910 5910 5910 5909 5909 5908 5908 5908 5908 5908 5908 5908 5908 5908 5909 5910 5912 5913 5913 5913 5913 5913 5913 5914 5914 5915 5915 5916 5916 5917 5918 5918 5918 5918 5918 5918 5918 5918 5918 5918 5918 5918 5917 5917 5917 5917 5917 5917 5916 5916 5915 5914 5914 5914 5913 5913 5912 5912 5912 5912
5910 5909 5908 5908 5907 5906 5906 5906 5906 5906 5905 5905 5906 5907 5906 5906 5906 5906 5907 5908 5908 5909 5909 5909 5909 5909 5909 5909 5910 5910 5911 5911 5910 5909 5908 5908 5910 5910 5911 5911 5911 5911 5910 5909 5909 5909 5909 5910 5910 5910 5910 5911 5912 5913 5913 5913 5913 5913 5913 5914 5914 5914 5915 5915 5916 5916 5917 5918 5918 5918 5917 5918 5918 5918 5918 5918 5918 5918 5917 5916 5916 5916 5916 5916 5916 5916 5915 5915 5914 5913 5913 5913 5912 5912 5911 5912 5912
5911 5910 5909 5908 5907 5907 5906 5906 5907 5907 5906 5906 5907 5907 5907 5907 5907 5908 5908 5909 5909 5909 5910 5909 5909 5910 5910 5910 5910 5911 5911 5911 5911 5910 5909 5908 5909 5910 5911 5911 5911 5912 5912 5911 5910 5910 5910 5911 5912 5912 5912 5912 5912 5913 5913 5914 5913 5913 5913 5914 5914 5915 5915 5915 5916 5917 5917 5918 5918 5917 5917 5918 5918 5918 5918 5918 5917 5917 5917 5916 5916 5915 5915 5916 5916 5915 5915 5914 5913 5913 5913 5912 5912 5912 5911 5912 5911
5911 5911 5910 5909 5908 5908 5907 5907 5908 5908 5907 5907 5907 5908 5908 5908 5908 5909 5909 5910 5910 5910 5910 5910 5910 5910 5910 5910 5910 5911 5911 5911 5911 5911 5910 5909 5909 5910 5911 5911 5911 5912 5912 5912 5912 5911 5911 5912 5913 5913 5913 5912 5912 5912 5913 5913 5913 5913 5914 5914 5915 5915 5916 5916 5916 5917 5917 5917 5917 5917 5917 5917 5918 5918 5917 5917 5917 5916 5916 5916 5915 5914 5914 5914 5915 5914 5914 5914 5914 5913 5912 5912 5912 5912 5911 5911 5911
5912 5911 5910 5910 5910 5909 5909 5908 5908 5908 5908 5908 5908 5908 5909 5909 5909 5909 5910 5910 5910 5910 5910 5910 5910 5911 5910 5910 5910 5910 5911 5911 5911 5911 5911 5909 5909 5909 5910 5911 5911 5911 5912 5912 5912 5912 5912 5912 5913 5913 5913 5912 5912 5912 5912 5913 5913 5914 5914 5915 5915 5915 5916 5916 5917 5917 5917 5917 5917 5917 5917 5917 5917 5917 5917 5916 5916 5916 5916 5915 5915 5915 5914 5914 5914 5914 5914 5914 5914 5912 5911 5911 5913 5912 5911 5911 5911
5912 5912 5911 5911 5911 5910 5910 5910 5909 5909 5909 5909 5909 5909 5909 5909 5909 5910 5910 5910 5910 5910 5910 5910 5910 5911 5910 5910 5910 5910 5910 5911 5911 5912 5911 5911 5910 5910 5910 5910 5911 5911 5912 5912 5912 5912 5912 5912 5913 5913 5913 5913 5913 5912 5912 5913 5914 5915 5915 5915 5915 5915 5915 5916 5917 5917 5917 5917 5917 5917 5917 5917 5917 5917 5916 5916 5916 5916 5916 5915 5915 5915 5914 5914 5913 5913 5914 5914 5913 5912 5911 5912 5913 5912 5911 5911 5910
5914 5913 5912 5912 5911 5911 5910 5910 5910 5910 5910 5910 5910 5909 5909 5909 5909 5909 5910 5910 5910 5910 5910 5910 5911 5911 5910 5910 5910 5910 5910 5910 5911 5912 5912 5912 5911 5910 5910 5910 5910 5911 5911 5912 5912 5912 5912 5912 5913 5913 5913 5914 5914 5913 5913 5914 5914 5915 5915 5915 5915 5915 5915 5916 5917 5917 5917 5917 5917 5917 5917 5917 5916 5916 5917 5916 5916 5916 5916 5915 5915 5915 5914 5914 5913 5913 5914 5913 5913 5912 5912 5912 5913 5913 5911 5910 5910
5915 5914 5913 5913 5912 5912 5911 5911 5911 5911 5911 5911 5910 5910 5910 5909 5909 5909 5909 5910 5909 5910 5910 5911 5911 5911 5911 5911 5910 5910 5910 5910 5911 5912 5912 5912 5912 5912 5911 5910 5910 5910 5911 5911 5912 5912 5912 5913 5913 5913 5913 5914 5914 5914 5914 5914 5915 5915 5915 5915 5915 5915 5915 5916 5916 5917 5917 5917 5917 5917 5917 5917 5916 5916 5916 5916 5915 5915 5915 5915 5914 5914 5914 5914 5913 5913 5913 5913 5913 5913 5912 5912 5913 5913 5911 5910 5910
5916 5915 5914 5914 5913 5912 5912 5911 5911 5911 5911 5911 5911 5911 5910 5910 5909 5909 5909 5909 5909 5909 5910 5911 5911 5911 5911 5911 5911 5910 5910 5911 5911 5912 5913 5913 5913 5913 5912 5912 5911 5910 5910 5911 5911 5912 5912 5913 5913 5913 5914 5914 5914 5914 5914 5914 5915 5915 5916 5916 5915 5915 5915 5916 5916 5916 5916 5916 5916 5917 5916 5916 5916 5916 5916 5916 5915 5915 5915 5915 5914 5914 5914 5914 5914 5912 5912 5912 5912 5913 5912 5912 5913 5912 5911 5911 5911
5917 5916 5916 5915 5914 5913 5912 5912 5912 5912 5912 5912 5911 5911 5911 5911 5910 5910 5910 5909 5909 5909 5910 5911 5911 5911 5911 5911 5911 5911 5910 5911 5911 5912 5913 5913 5914 5914 5913 5913 5912 5911 5911 5911 5911 5912 5912 5912 5913 5914 5914 5914 5914 5914 5914 5914 5915 5915 5916 5916 5916 5916 5916 5916 5916 5916 5916 5916 5916 5916 5916 5916 5916 5916 5916 5915 5915 5915 5914 5914 5914 5913 5913 5913 5913 5913 5913 5913 5913 5913 5913 5912 5913 5912 5911 5911 5911
5918 5917 5917 5916 5914 5913 5912 5912 5912 5912 5912 5912 5912 5912 5912 5911 5911 5911 5911 5910 5909 5910 5911 5911 5911 5911 5911 5911 5911 5911 5911 5911 5911 5912 5912 5913 5914 5914 5914 5914 5913 5913 5912 5912 5912 5912 5912 5913 5914 5914 5914 5914 5914 5914 5914 5915 5915 5915 5916 5916 5916 5916 5916 5915 5915 5915 5915 5915 5915 5915 5915 5916 5916 5915 5915 5915 5915 5914 5914 5913 5913 5913 5914 5913 5913 5913 5913 5914 5913 5913 5913 5913 5912 5912 5911 5912 5912
5918 5918 5917 5917 5915 5914 5913 5913 5913 5913 5913 5913 5913 5913 5912 5912 5912 5912 5912 5911 5910 5910 5911 5911 5911 5911 5910 5910 5911 5911 5911 5911 5912 5912 5912 5913 5913 5914 5914 5914 5914 5914 5914 5913 5913 5913 5913 5914 5915 5914 5914 5914 5914 5914 5914 5915 5915 5915 5915 5916 5915 5915 5915 5915 5915 5915 5915 5915 5915 5915 5915 5915 5915 5914 5914 5914 5914 5914 5913 5913 5913 5913 5914 5914 5913 5913 5913 5914 5913 5913 5913 5913 5912 5912 5912 5913 5912
5919 5918 5918 5917 5916 5914 5914 5914 5914 5914 5914 5913 5913 5913 5913 5913 5913 5913 5913 5912 5912 5911 5911 5911 5910 5911 5910 5911 5911 5911 5911 5911 5912 5912 5912 5913 5913 5913 5913 5913 5914 5914 5914 5914 5913 5913 5913 5914 5915 5915 5914 5914 5914 5914 5915 5915 5915 5915 5914 5914 5914 5914 5914 5914 5914 5915 5915 5915 5915 5915 5914 5914 5914 5913 5913 5914 5914 5914 5913 5911 5911 5913 5915 5914 5913 5913 5913 5914 5913 5913 5913 5913 5912 5912 5913 5913 5913
5919 5918 5918 5917 5916 5915 5915 5915 5915 5915 5915 5914 5914 5914 5914 5914 5914 5914 5913 5913 5912 5912 5911 5910 5910 5910 5911 5911 5912 5911 5912 5912 5912 5912 5912 5912 5913 5913 5913 5913 5913 5914 5914 5914 5913 5913 5913 5914 5914 5915 5913 5913 5914 5914 5914 5914 5914 5914 5914 5913 5914 5914 5913 5913 5913 5914 5915 5915 5914 5914 5914 5914 5913 5913 5913 5915 5917 5915 5912 5911 5912 5914 5915 5915 5914 5913 5913 5914 5914 5913 5913 5913 5913 5913 5914 5914 5914
5919 5919 5918 5917 5917 5916 5916 5917 5916 5916 5916 5915 5915 5914 5914 5914 5914 5914 5913 5913 5913 5912 5911 5910 5910 5910 5911 5911 5912 5912 5912 5912 5912 5912 5912 5912 5912 5912 5912 5912 5912 5913 5913 5913 5913 5913 5913 5913 5913 5913 5912 5912 5913 5914 5914 5913 5913 5914 5913 5913 5913 5913 5913 5913 5913 5913 5914 5914 5914 5913 5913 5913 5913 5913 5913 5913 5916 5915 5912 5912 5914 5915 5915 5916 5914 5913 5914 5914 5914 5913 5913 5913 5914 5914 5914 5915 5915
5920 5919 5918 5918 5917 5917 5917 5917 5917 5917 5917 5916 5916 5915 5915 5914 5914 5913 5913 5913 5912 5912 5911 5910 5910 5911 5911 5911 5911 5912 5912 5912 5912 5912 5912 5912 5912 5912 5912 5912 5912 5912 5913 5913 5913 5912 5912 5912 5913 5913 5912 5912 5912 5913 5913 5912 5912 5913 5913 5913 5913 5913 5913 5913 5913 5913 5914 5914 5913 5913 5913 5913 5912 5913 5913 5912 5912 5913 5913 5914 5915 5916 5916 5916 5914 5914 5915 5915 5914 5913 5914 5914 5915 5915 5915 5915 5915
5921 5920 5919 5919 5918 5918 5918 5918 5918 5918 5917 5917 5916 5916 5915 5915 5914 5914 5913 5913 5912 5912 5912 5911 5911 5911 5910 5910 5910 5911 5911 5911 5911 5912 5911 5911 5912 5912 5911 5911 5911 5911 5912 5912 5912 5912 5912 5912 5912 5912 5912 5911 5911 5912 5912 5912 5912 5912 5912 5912 5912 5912 5912 5913 5913 5913 5913 5914 5913 5913 5913 5912 5912 5911 5912 5911 5911 5913 5914 5915 5915 5915 5915 5915 5915 5915 5915 5916 5915 5914 5915 5916 5916 5916 5916 5916 5916
5921 5921 5920 5919 5919 5919 5919 5919 5918 5918 5918 5917 5917 5916 5916 5915 5915 5914 5913 5913 5913 5913 5912 5912 5911 5911 5910 5910 5909 5910 5911 5911 5911 5911 5911 5911 5911 5911 5911 5911 5911 5911 5912 5912 5912 5912 5912 5912 5912 5912 5912 5912 5911 5911 5911 5912 5911 5911 5912 5912 5912 5912 5912 5912 5913 5913 5913 5913 5913 5913 5913 5912 5912 5911 5910 5909 5911 5913 5914 5914 5914 5914 5914 5914 5915 5915 5916 5917 5915 5915 5917 5917 5917 5917 5917 5917 5917
5922 5921 5921 5920 5920 5920 5920 5919 5919 5919 5919 5918 5918 5917 5916 5916 5915 5915 5914 5914 5913 5913 5912 5912 5911 5911 5910 5910 5909 5909 5910 5911 5911 5911 5912 5912 5911 5911 5911 5911 5911 5912 5912 5912 5912 5912 5912 5912 5912 5912 5912 5913 5912 5910 5910 5911 5911 5911 5911 5911 5912 5912 5912 5912 5913 5913 5913 5913 5913 5913 5913 5912 5912 5911 5909 5909 5911 5913 5913 5914 5914 5914 5914 5914 5915 5915 5916 5916 5915 5917 5919 5919 5918 5918 5917 5917 5917
5923 5922 5922 5921 5921 5921 5921 5920 5920 5919 5919 5919 5918 5917 5917 5916 5915 5915 5914 5914 5914 5913 5913 5912 5912 5911 5911 5910 5909 5909 5909 5910 5910 5911 5911 5911 5911 5911 5911 5911 5912 5912 5912 5912 5912 5912 5912 5912 5912 5912 5912 5913 5913 5912 5910 5910 5910 5911 5911 5911 5911 5911 5912 5912 5912 5912 5912 5912 5912 5913 5913 5912 5912 5911 5910 5910 5911 5913 5913 5913 5913 5914 5915 5915 5915 5915 5915 5915 5917 5919 5920 5919 5919 5918 5918 5918 5918
5924 5923 5923 5922 5922 5922 5921 5921 5921 5920 5920 5919 5919 5918 5917 5916 5916 5915 5915 5914 5914 5914 5914 5913 5912 5912 5911 5911 5910 5909 5909 5909 5910 5910 5910 5910 5911 5911 5911 5911 5912 5912 5912 5913 5912 5912 5912 5912 5912 5912 5912 5912 5913 5913 5912 5910 5910 5910 5910 5910 5911 5911 5911 5912 5912 5912 5912 5912 5912 5912 5912 5912 5913 5912 5911 5911 5912 5913 5913 5913 5913 5914 5915 5916 5916 5916 5916 5917 5919 5920 5920 5920 5920 5919 5919 5919 5919
5925 5924 5924 5923 5923 5923 5922 5922 5921 5921 5920 5920 5920 5919 5917 5917 5916 5915 5915 5915 5914 5914 5915 5914 5913 5912 5912 5911 5910 5910 5909 5909 5909 5909 5910 5910 5910 5910 5910 5911 5911 5912 5912 5913 5913 5912 5912 5912 5912 5912 5912 5912 5912 5912 5912 5911 5910 5910 5910 5910 5910 5910 5911 5911 5912 5912 5912 5912 5911 5911 5911 5912 5913 5913 5913 5912 5912 5912 5913 5913 5913 5913 5915 5916 5917 5917 5918 5917 5918 5919 5920 5920 5920 5920 5920 5920 5920
5926 5925 5925 5924 5924 5924 5923 5922 5922 5921 5921 5921 5920 5919 5918 5917 5916 5915 5915 5915 5914 5914 5915 5915 5914 5913 5912 5912 5911 5910 5910 5909 5909 5909 5909 5910 5910 5910 5910 5910 5911 5911 5912 5912 5912 5912 5912 5912 5912 5912 5912 5912 5912 5912 5912 5912 5911 5911 5910 5910 5910 5910 5910 5911 5912 5912 5912 5912 5911 5910 5911 5911 5911 5912 5912 5912 5912 5912 5912 5913 5913 5913 5915 5916 5917 5918 5918 5917 5918 5919 5920 5920 5920 5920 5920 5920 5920
5926 5925 5925 5926 5925 5925 5924 5923 5923 5922 5922 5922 5921 5920 5919 5918 5917 5916 5915 5915 5914 5915 5915 5915 5914 5913 5912 5912 5911 5910 5910 5909 5909 5909 5909 5909 5909 5909 5909 5910 5910 5910 5911 5912 5912 5912 5912 5912 5912 5912 5911 5911 5912 5912 5911 5911 5911 5911 5911 5911 5910 5910 5910 5910 5911 5911 5911 5911 5910 5910 5910 5910 5910 5910 5911 5912 5911 5912 5913 5913 5913 5913 5914 5915 5916 5917 5917 5917 5918 5920 5920 5921 5921 5921 5921 5921 5921
5926 5926 5926 5927 5926 5926 5925 5924 5924 5923 5922 5923 5922 5921 5920 5919 5917 5916 5916 5915 5914 5915 5915 5915 5914 5913 5913 5912 5911 5911 5910 5910 5909 5909 5909 5909 5909 5909 5909 5909 5909 5910 5910 5911 5911 5911 5912 5912 5912 5911 5911 5911 5911 5911 5911 5911 5911 5910 5910 5910 5910 5910 5910 5910 5910 5910 5910 5910 5910 5910 5910 5909 5909 5909 5910 5911 5911 5912 5912 5913 5914 5914 5914 5915 5915 5916 5917 5917 5919 5920 5920 5921 5921 5921 5921 5921 5922
5927 5927 5927 5927 5927 5927 5926 5925 5924 5924 5923 5923 5923 5922 5921 5919 5918 5917 5916 5915 5914 5914 5914 5914 5913 5913 5913 5912 5911 5911 5910 5910 5909 5908 5908 5908 5908 5908 5908 5908 5909 5909 5910 5910 5910 5911 5911 5911 5911 5911 5911 5911 5911 5911 5911 5911 5910 5910 5910 5910 5910 5910 5910 5910 5909 5909 5909 5909 5909 5910 5910 5909 5908 5909 5910 5910 5911 5912 5912 5913 5914 5915 5915 5915 5915 5916 5917 5919 5919 5920 5920 5921 5921 5921 5921 5922 5922
5927 5927 5927 5927 5927 5927 5926 5926 5925 5924 5924 5924 5924 5923 5922 5920 5919 5918 5917 5916 5915 5914 5914 5913 5913 5913 5912 5912 5911 5911 5910 5910 5909 5908 5907 5907 5907 5907 5908 5908 5908 5909 5909 5910 5910 5910 5910 5911 5911 5911 5911 5911 5910 5910 5910 5910 5910 5910 5909 5909 5909 5909 5909 5909 5909 5909 5909 5909 5909 5909 5909 5910 5909 5910 5910 5910 5911 5912 5913 5914 5915 5915 5915 5916 5916 5917 5918 5919 5920 5920 5920 5920 5921 5921 5921 5922 5922
5927 5927 5927 5927 5927 5927 5927 5926 5925 5924 5924 5924 5924 5924 5923 5921 5920 5919 5918 5917 5916 5915 5914 5913 5912 5912 5912 5911 5911 5910 5910 5909 5909 5908 5907 5907 5906 5907 5907 5907 5908 5908 5909 5909 5909 5909 5910 5910 5910 5910 5910 5910 5910 5910 5910 5910 5910 5909 5909 5909 5909 5909 5909 5909 5909 5909 5909 5909 5909 5909 5909 5911 5911 5911 5911 5911 5911 5912 5913 5914 5915 5916 5916 5916 5916 5917 5918 5919 5919 5919 5920 5920 5921 5921 5922 5922 5923
5927 5927 5927 5927 5927 5927 5926 5926 5926 5925 5924 5924 5924 5924 5924 5922 5921 5920 5919 5918 5917 5915 5914 5913 5912 5911 5911 5911 5910 5910 5909 5909 5908 5908 5907 5907 5906 5906 5906 5906 5907 5908 5908 5908 5908 5908 5909 5909 5909 5909 5909 5909 5909 5909 5909 5909 5909 5909 5909 5909 5909 5909 5909 5909 5909 5909 5909 5909 5909 5909 5909 5911 5911 5911 5911 5911 5912 5913 5914 5914 5915 5916 5916 5916 5916 5917 5918 5918 5919 5919 5919 5920 5921 5921 5922 5923 5924
5926 5926 5926 5926 5926 5926 5926 5926 5925 5925 5924 5923 5924 5924 5924 5923 5921 5920 5919 5918 5917 5916 5915 5914 5912 5911 5910 5910 5909 5909 5909 5909 5908 5908 5907 5907 5906 5906 5906 5906 5906 5906 5907 5907 5907 5908 5908 5907 5907 5907 5907 5907 5907 5908 5908 5908 5908 5908 5908 5908 5909 5909 5908 5908 5908 5908 5908 5908 5909 5909 5909 5910 5910 5910 5911 5911 5912 5913 5914 5915 5915 5916 5916 5916 5916 5917 5917 5918 5918 5919 5919 5920 5921 5922 5922 5923 5924
5925 5926 5926 5926 5926 5926 5925 5925 5925 5925 5924 5923 5923 5924 5924 5923 5922 5921 5920 5919 5918 5917 5915 5914 5913 5912 5910 5909 5909 5908 5908 5908 5908 5908 5907 5907 5907 5906 5906 5906 5906 5906 5905 5905 5906 5906 5906 5906 5906 5905 5905 5906 5906 5906 5906 5906 5906 5907 5907 5907 5908 5908 5908 5908 5908 5908 5908 5908 5908 5908 5909 5909 5909 5909 5910 5911 5912 5913 5914 5915 5915 5915 5916 5916 5916 5917 5917 5917 5918 5919 5919 5920 5920 5921 5923 5924 5925
5925 5925 5925 5926 5925 5925 5925 5924 5924 5924 5924 5923 5923 5923 5924 5923 5922 5921 5920 5919 5918 5917 5916 5915 5913 5912 5911 5909 5909 5908 5907 5907 5907 5907 5907 5907 5906 5906 5906 5905 5905 5905 5905 5904 5904 5905 5905 5905 5905 5905 5904 5904 5905 5905 5905 5905 5905 5905 5906 5907 5907 5908 5908 5908 5908 5908 5908 5908 5908 5908 5908 5909 5909 5909 5910 5911 5912 5913 5914 5914 5915 5915 5916 5916 5916 5917 5917 5917 5918 5919 5919 5920 5920 5921 5923 5924 5926
5924 5925 5925 5925 5925 5925 5924 5923 5923 5923 5923 5923 5923 5923 5923 5923 5922 5921 5920 5919 5918 5917 5916 5915 5913 5912 5911 5910 5909 5908 5907 5906 5906 5905 5905 5905 5906 5905 5905 5904 5904 5904 5904 5903 5903 5903 5904 5904 5904 5904 5904 5904 5904 5904 5904 5904 5905 5905 5905 5906 5907 5907 5907 5907 5908 5908 5908 5908 5908 5908 5908 5909 5909 5910 5910 5911 5912 5913 5913 5914 5915 5915 5916 5916 5916 5917 5917 5917 5918 5918 5919 5920 5920 5921 5923 5925 5926
5924 5924 5924 5924 5924 5924 5923 5923 5922 5922 5923 5923 5923 5923 5922 5922 5922 5921 5920 5919 5918 5918 5917 5916 5914 5913 5911 5910 5909 5907 5906 5906 5905 5904 5904 5904 5904 5904 5904 5903 5903 5902 5902 5902 5902 5902 5902 5903 5903 5903 5903 5904 5904 5904 5904 5904 5904 5904 5904 5905 5906 5906 5906 5907 5907 5907 5908 5908 5908 5908 5908 5908 5909 5910 5910 5911 5912 5913 5913 5914 5914 5915 5916 5916 5916 5917 5917 5917 5918 5918 5919 5920 5921 5922 5923 5925 5926
5923 5923 5924 5924 5923 5923 5923 5922 5921 5921 5922 5922 5922 5923 5922 5921 5921 5920 5920 5919 5918 5918 5917 5916 5915 5913 5912 5910 5909 5908 5906 5905 5905 5904 5903 5903 5903 5903 5902 5902 5901 5901 5901 5901 5901 5901 5901 5902 5902 5902 5902 5903 5903 5903 5903 5903 5903 5903 5903 5904 5905 5906 5906 5907 5907 5907 5907 5907 5907 5907 5907 5908 5908 5909 5910 5911 5912 5913 5913 5914 5914 5915 5916 5916 5917 5917 5917 5917 5918 5918 5919 5920 5921 5923 5923 5924 5925
5923 5923 5923 5923 5923 5923 5922 5922 5921 5921 5922 5922 5922 5922 5922 5921 5920 5920 5919 5918 5918 5918 5917 5916 5914 5913 5912 5910 5909 5908 5906 5905 5904 5903 5903 5902 5902 5902 5901 5901 5901 5900 5900 5900 5900 5900 5900 5901 5901 5902 5902 5902 5902 5902 5903 5902 5902 5902 5902 5903 5904 5905 5906 5906 5906 5906 5906 5907 5907 5907 5907 5907 5908 5908 5909 5911 5912 5912 5913 5914 5914 5915 5916 5916 5917 5917 5917 5918 5918 5919 5919 5921 5922 5923 5923 5924 5925
5922 5923 5922 5922 5922 5922 5922 5922 5921 5921 5921 5922 5921 5922 5921 5920 5920 5919 5919 5918 5917 5917 5917 5916 5914 5913 5911 5910 5908 5907 5906 5905 5904 5903 5903 5902 5902 5901 5901 5901 5900 5900 5899 5899 5899 5899 5899 5900 5900 5901 5901 5901 5901 5901 5901 5901 5901 5901 5901 5902 5903 5905 5905 5905 5905 5905 5905 5906 5906 5906 5906 5906 5907 5908 5908 5910 5911 5912 5913 5914 5914 5915 5916 5916 5917 5917 5917 5918 5918 5919 5920 5921 5922 5923 5923 5924 5925
5922 5922 5922 5921 5921 5921 5921 5921 5921 5921 5921 5921 5921 5921 5921 5920 5920 5919 5918 5918 5917 5917 5917 5916 5914 5912 5911 5909 5908 5907 5906 5905 5904 5903 5902 5902 5901 5901 5901 5900 5900 5899 5899 5899 5899 5899 5899 5899 5899 5900 5900 5900 5900 5899 5899 5899 5899 5899 5900 5900 5901 5902 5903 5903 5903 5904 5904 5904 5905 5905 5905 5905 5906 5907 5908 5909 5910 5911 5913 5914 5914 5915 5916 5916 5917 5917 5918 5918 5919 5919 5920 5920 5921 5922 5923 5924 5925
5922 5922 5921 5921 5921 5921 5921 5920 5920 5920 5921 5921 5921 5920 5920 5920 5919 5918 5918 5917 5917 5917 5916 5915 5913 5912 5910 5909 5908 5907 5906 5905 5904 5903 5902 5901 5901 5900 5900 5900 5900 5899 5899 5899 5898 5898 5898 5898 5898 5898 5898 5898 5898 5897 5897 5897 5897 5897 5898 5898 5898 5899 5900 5900 5901 5902 5903 5903 5904 5904 5904 5904 5905 5906 5907 5908 5909 5911 5912 5913 5914 5915 5916 5916 5917 5918 5918 5919 5919 5919 5919 5920 5921 5922 5923 5924 5925
5922 5921 5920 5920 5920 5920 5920 5920 5920 5920 5921 5921 5920 5920 5920 5919 5918 5918 5917 5917 5917 5916 5916 5914 5912 5911 5910 5909 5908 5907 5906 5905 5904 5903 5902 5901 5900 5900 5900 5900 5899 5899 5898 5898 5897 5896 5896 5895 5895 5895 5895 5895 5895 5894 5894 5894 5895 5895 5896 5896 5896 5896 5897 5898 5899 5901 5902 5902 5903 5903 5903 5903 5904 5905 5906 5907 5908 5910 5911 5912 5914 5915 5916 5917 5917 5918 5919 5919 5919 5919 5920 5920 5921 5922 5923 5924 5925
5920 5920 5919 5920 5920 5920 5920 5920 5920 5920 5921 5920 5919 5919 5919 5918 5918 5917 5917 5917 5916 5915 5915 5913 5912 5911 5909 5908 5907 5907 5906 5905 5904 5903 5902 5901 5900 5899 5899 5899 5898 5898 5897 5896 5895 5894 5893 5893 5892 5892 5892 5892 5892 5892 5891 5891 5892 5893 5894 5894 5895 5895 5896 5897 5898 5899 5900 5901 5902 5902 5902 5902 5903 5904 5905 5906 5907 5909 5910 5911 5913 5914 5915 5916 5917 5918 5919 5919 5919 5919 5920 5920 5921 5922 5923 5924 5925
5919 5919 5919 5920 5920 5919 5919 5919 5919 5920 5920 5920 5919 5919 5918 5918 5917 5917 5917 5916 5915 5915 5914 5913 5912 5910 5908 5907 5906 5906 5906 5905 5903 5902 5901 5901 5900 5899 5898 5898 5897 5896 5896 5895 5894 5893 5891 5890 5889 5889 5888 5888 5888 5888 5888 5889 5890 5891 5892 5892 5893 5894 5895 5896 5896 5897 5898 5899 5900 5901 5901 5901 5901 5903 5904 5905 5907 5907 5909 5910 5911 5913 5914 5916 5917 5917 5918 5919 5919 5919 5920 5920 5920 5921 5922 5924 5925
5918 5918 5919 5919 5919 5919 5919 5919 5919 5919 5919 5918 5918 5918 5918 5917 5917 5917 5916 5916 5915 5914 5913 5912 5911 5909 5908 5906 5905 5905 5905 5904 5903 5902 5901 5900 5899 5899 5898 5897 5896 5895 5894 5893 5892 5891 5890 5888 5887 5886 5886 5885 5885 5885 5886 5887 5888 5888 5889 5890 5891 5892 5893 5894 5894 5895 5895 5896 5898 5899 5900 5900 5900 5901 5903 5904 5905 5906 5907 5908 5910 5911 5913 5914 5916 5917 5918 5918 5919 5919 5920 5920 5920 5921 5922 5923 5924
5917 5917 5918 5918 5918 5918 5919 5919 5919 5918 5918 5918 5918 5918 5917 5917 5917 5916 5916 5915 5914 5913 5912 5911 5910 5908 5907 5905 5905 5904 5904 5903 5903 5901 5900 5899 5899 5898 5896 5895 5894 5894 5893 5892 5890 5889 5888 5886 5885 5885 5883 5881 5880 5881 5883 5884 5885 5886 5886 5888 5889 5890 5891 5892 5893 5893 5893 5894 5896 5897 5898 5899 5899 5900 5901 5903 5904 5905 5906 5907 5908 5909 5911 5913 5914 5916 5917 5917 5918 5919 5919 5919 5920 5921 5921 5922 5924
5916 5917 5917 5917 5917 5918 5918 5918 5918 5917 5917 5917 5917 5917 5917 5917 5916 5916 5915 5914 5913 5913 5912 5910 5909 5907 5906 5905 5904 5903 5903 5903 5902 5901 5900 5899 5897 5896 5895 5894 5893 5892 5891 5890 5889 5887 5886 5884 5883 5883 5881 5878 5877 5877 5879 5881 5883 5884 5885 5885 5886 5887 5889 5890 5891 5892 5892 5892 5894 5895 5897 5897 5898 5898 5900 5901 5902 5903 5904 5905 5907 5908 5909 5911 5913 5914 5915 5916 5917 5918 5918 5919 5919 5920 5921 5922 5923
5915 5916 5916 5916 5917 5917 5917 5917 5916 5916 5916 5916 5916 5916 5916 5916 5916 5915 5914 5914 5913 5912 5911 5909 5908 5907 5905 5905 5904 5903 5903 5902 5901 5900 5899 5898 5896 5895 5894 5893 5892 5891 5890 5889 5888 5886 5884 5883 5882 5881 5879 5877 5876 5876 5878 5879 5881 5882 5883 5883 5884 5885 5887 5888 5890 5890 5891 5891 5892 5894 5895 5896 5897 5897 5898 5899 5901 5902 5903 5904 5905 5906 5907 5909 5910 5912 5913 5915 5916 5917 5918 5918 5919 5919 5920 5921 5922
5914 5914 5914 5915 5915 5916 5916 5916 5916 5915 5916 5916 5916 5916 5915 5915 5915 5914 5914 5913 5913 5912 5911 5909 5908 5906 5905 5904 5903 5903 5902 5901 5900 5899 5898 5897 5896 5895 5894 5893 5892 5890 5889 5888 5887 5885 5883 5881 5880 5879 5878 5877 5877 5877 5877 5878 5879 5880 5881 5881 5882 5883 5884 5886 5887 5889 5889 5890 5891 5892 5894 5895 5895 5896 5897 5898 5899 5900 5901 5902 5903 5904 5905 5907 5908 5910 5912 5913 5915 5916 5917 5917 5918 5918 5919 5920 5921
5912 5913 5913 5914 5914 5915 5915 5915 5915 5915 5915 5915 5915 5915 5915 5914 5914 5914 5913 5913 5912 5911 5910 5909 5907 5906 5905 5904 5903 5903 5902 5900 5899 5898 5897 5896 5895 5894 5893 5892 5891 5890 5888 5887 5886 5884 5882 5880 5878 5877 5877 5876 5876 5876 5876 5877 5878 5879 5879 5879 5880 5880 5882 5883 5885 5886 5888 5888 5889 5891 5892 5893 5894 5895 5896 5897 5898 5899 5900 5901 5902 5903 5904 5905 5907 5908 5910 5912 5913 5914 5915 5916 5917 5918 5919 5919 5920
5911 5912 5912 5913 5913 5914 5914 5914 5914 5915 5914 5914 5914 5914 5914 5914 5913 5913 5913 5912 5911 5910 5910 5909 5907 5906 5905 5904 5903 5902 5901 5899 5898 5897 5896 5895 5894 5894 5893 5892 5890 5889 5888 5887 5885 5884 5881 5879 5878 5876 5876 5875 5875 5874 5875 5875 5876 5877 5877 5877 5878 5878 5879 5881 5883 5884 5886 5886 5887 5889 5891 5892 5893 5894 5895 5896 5897 5898 5899 5900 5901 5902 5903 5904 5905 5907 5908 5910 5911 5913 5914 5915 5916 5917 5918 5918 5919
5911 5911 5912 5912 5912 5912 5913 5913 5913 5913 5913 5913 5913 5913 5913 5912 5912 5912 5912 5911 5910 5910 5909 5908 5907 5906 5905 5904 5903 5902 5900 5899 5898 5896 5895 5894 5894 5893 5892 5891 5889 5888 5887 5886 5884 5882 5880 5879 5877 5875 5875 5874 5873 5873 5873 5873 5874 5874 5874 5875 5875 5876 5877 5879 5880 5882 5883 5884 5885 5887 5889 5890 5891 5892 5893 5894 5895 5896 5898 5899 5900 5901 5902 5903 5903 5905 5906 5908 5909 5911 5912 5913 5914 5915 5916 5917 5918
5910 5911 5911 5911 5910 5911 5912 5912 5912 5912 5912 5912 5912 5912 5911 5911 5911 5911 5910 5910 5909 5909 5908 5907 5907 5906 5904 5904 5903 5901 5899 5898 5897 5896 5895 5894 5893 5892 5891 5889 5888 5887 5886 5885 5883 5881 5879 5878 5876 5875 5873 5872 5872 5871 5871 5871 5871 5871 5871 5872 5873 5874 5875 5876 5878 5879 5881 5882 5883 5885 5887 5888 5889 5890 5891 5892 5893 5895 5896 5897 5898 5900 5900 5901 5902 5903 5904 5905 5907 5909 5910 5911 5913 5914 5915 5916 5917
5909 5910 5909 5909 5910 5910 5911 5911 5910 5910 5910 5910 5910 5910 5910 5910 5910 5909 5909 5909 5909 5908 5907 5906 5906 5905 5904 5903 5901 5900 5898 5898 5897 5896 5895 5894 5892 5891 5890 5888 5886 5885 5884 5883 5882 5880 5878 5877 5876 5874 5872 5870 5870 5870 5869 5869 5869 5868 5868 5869 5870 5871 5872 5874 5875 5877 5878 5879 5880 5882 5884 5886 5887 5889 5890 5891 5892 5892 5893 5895 5896 5897 5898 5899 5900 5901 5902 5903 5905 5906 5908 5909 5911 5912 5913 5914 5915
5909 5909 5908 5909 5910 5909 5909 5909 5909 5909 5909 5909 5909 5909 5909 5909 5909 5908 5908 5908 5908 5907 5906 5906 5905 5904 5903 5902 5900 5899 5898 5897 5897 5896 5894 5893 5891 5890 5889 5887 5884 5883 5882 5882 5881 5879 5877 5876 5875 5873 5871 5870 5870 5869 5868 5868 5867 5866 5866 5866 5868 5869 5870 5872 5873 5875 5876 5877 5878 5879 5881 5883 5885 5887 5889 5890 5891 5891 5892 5893 5893 5894 5896 5897 5898 5899 5900 5901 5902 5904 5905 5907 5908 5910 5911 5912 5913
5908 5908 5908 5909 5909 5908 5908 5908 5908 5908 5908 5908 5907 5908 5908 5908 5907 5907 5907 5907 5907 5906 5906 5905 5904 5903 5902 5900 5899 5898 5897 5896 5895 5895 5893 5891 5890 5888 5887 5885 5883 5882 5881 5881 5880 5878 5877 5875 5874 5872 5870 5870 5869 5868 5868 5867 5866 5865 5865 5865 5866 5867 5869 5870 5872 5873 5874 5875 5876 5877 5878 5880 5882 5885 5886 5887 5888 5890 5891 5891 5892 5893 5893 5894 5895 5896 5897 5898 5900 5901 5902 5904 5906 5908 5909 5910 5911
5907 5907 5908 5908 5907 5907 5907 5907 5907 5907 5907 5906 5906 5906 5906 5906 5906 5906 5906 5906 5905 5905 5905 5904 5903 5902 5900 5899 5898 5897 5896 5895 5894 5893 5892 5890 5888 5887 5885 5884 5882 5881 5880 5880 5879 5877 5876 5875 5874 5872 5871 5869 5868 5868 5867 5867 5865 5865 5864 5865 5865 5866 5867 5868 5870 5871 5872 5873 5874 5874 5875 5878 5881 5882 5883 5884 5885 5886 5888 5889 5890 5890 5891 5892 5893 5894 5895 5896 5897 5898 5899 5901 5903 5905 5907 5908 5909
5906 5906 5906 5906 5906 5906 5906 5905 5905 5905 5905 5905 5904 5905 5905 5905 5905 5905 5905 5904 5904 5903 5903 5903 5902 5901 5899 5898 5897 5896 5895 5894 5893 5892 5891 5889 5887 5885 5884 5882 5881 5880 5879 5878 5877 5876 5875 5874 5873 5872 5870 5869 5868 5867 5866 5866 5865 5864 5864 5864 5864 5865 5866 5867 5868 5868 5870 5870 5870 5872 5876 5879 5879 5879 5879 5881 5883 5885 5887 5888 5888 5889 5889 5889 5889 5891 5892 5894 5896 5896 5897 5898 5900 5902 5904 5905 5906